Regional Weather Roundup
Issued by NWS

Home | Current Version | Previous Version | Graphics & Text | Print | Product List | Glossary Off
Versions: 1 2 3 4 5 6 7 8 9 10 11 12 13 14 15 16 17 18 19 20 21 22 23 24 25 26 27 28 29 30 31 32 33 34 35 36 37 38 39 40 41 42 43 44 45 46 47 48 49 50

000
ASUS43 KMKX 170700
RWRWI

WISCONSIN REGIONAL WEATHER ROUNDUP
NATIONAL WEATHER SERVICE MILWAUKEE/SULLIVAN WI
200 AM CDT THU AUG 17 2017

NOTE: "FAIR" INDICATES FEW OR NO CLOUDS BELOW 12,000 FEET WITH NO
SIGNIFICANT WEATHER AND/OR OBSTRUCTIONS TO VISIBILITY.

WIZ001-002-006>008-014>016-023>028-170800-
NORTHWEST WISCONSIN

CITY           SKY/WX    TMP DP  RH WIND       PRES   REMARKS
SUPERIOR ARPT  RAIN      62  61  99 NE15G23   29.73F
ASHLAND        LGT RAIN  64  62  93 NE10      29.73F
HAYWARD        RAIN      65  63  93 E12       29.67F FOG
SIREN          CLOUDY    66  64  94 E6        29.62F
CUMBERLAND     LGT RAIN  64  63  94 E9        29.63F
RICE LAKE      LGT RAIN  66  65  94 E12       29.64F
CHETEK         CLOUDY    66  66  99 E10       29.64F
LADYSMITH      RAIN      65  64  97 E5        29.70F
EAU CLAIRE     NOT AVBL
MENOMONIE      MOCLDY    70  69  99 E8        29.61F
NEW RICHMOND   MOCLDY    69  68  99 E6        29.58F
OSCEOLA        CLOUDY    69  69 100 E7        29.59F
$$

WIZ003>005-009-010-017-018-170800-
NORTH CENTRAL WISCONSIN

CITY           SKY/WX    TMP DP  RH WIND       PRES   REMARKS
MANITOWISH WTR CLOUDY    64  60  88 E7        29.77F
ARBOR VITAE    CLOUDY    65  58  77 SE9       29.77F
WOODRUFF       CLOUDY    65  58  77 SE9       29.77F
RHINELANDER    CLOUDY    63  59  87 E13G18    29.77F
EAGLE RIVER    CLOUDY    63  55  76 E9G16     29.78F
LAND O LAKES   CLOUDY    64  56  78 E9        29.80F
PHILLIPS       LGT RAIN  62  62 100 E10       29.70F
TOMAHAWK         N/A     65  58  79 SE5       29.76F
MEDFORD        HVY RAIN  62  61  96 E10G18    29.71F
MERRILL        LGT RAIN  63  63 100 E13G18    29.75F
$$

WIZ029-030-035-036-043>047-170800-
CENTRAL WISCONSIN

CITY           SKY/WX    TMP DP  RH WIND       PRES   REMARKS
WAUSAU         LGT RAIN  63  63 100 E13       29.71F
MOSINEE        CLOUDY    63  63 100 E9        29.75F
MARSHFIELD     LGT RAIN  66  63  90 SE10      29.69F FOG
STEVENS POINT  CLOUDY    63  63 100 E10       29.73F FOG
WAUPACA        CLOUDY    68  68  98 E5        29.74F
WAUTOMA        NOT AVBL
WISC RAPIDS    CLOUDY    67  67 100 S5        29.71F FOG
CAMP DOUGLAS   NOT AVBL
$$

WIZ011>013-019>022-031-037>040-048>050-170800-
NORTHEAST WISCONSIN

CITY           SKY/WX    TMP DP  RH WIND       PRES   REMARKS
ANTIGO         RAIN      60  60 100 E14G21    29.78F
SHAWANO        RAIN      67  64  91 E3        29.75F
OCONTO         CLOUDY    67  65  94 E5        29.77F
STURGEON BAY   NOT AVBL
GREEN BAY      LGT RAIN  68  68 100 CALM      29.74F
MANITOWOC      NOT AVBL
APPLETON       CLOUDY    68  68 100 SE13      29.74F
CLINTONVILLE   CLOUDY    64  63  94 E6        29.73F
OSHKOSH        NOT AVBL
$$

WIZ032>034-041-042-053>061-170800-
SOUTHWEST WISCONSIN

CITY           SKY/WX    TMP DP  RH WIND       PRES   REMARKS
LA CROSSE      CLOUDY    77  72  84 S10       29.64S
SPARTA         CLOUDY    71  70  95 S6        29.67S
VIROQUA        CLOUDY    73  73 100 S13       29.69F
BOSCOBEL       NOT AVBL
PRAIRIE DU CHI CLOUDY    75  71  87 S5        29.68S
PLATTEVILLE    CLOUDY    73  73 100 S13       29.73S
$$

WIZ056-057-062-063-064-067-068-170800-
SOUTH CENTRAL WISCONSIN

CITY           SKY/WX    TMP DP  RH WIND       PRES   REMARKS
REEDSBURG      CLOUDY    73  73 100 S8        29.70F
BARABOO/DELLS  MOCLDY    72  70  94 S10       29.71F FOG
LONE ROCK      NOT AVBL
MINERAL POINT  CLOUDY    73  73 100 S8        29.74S
MADISON        NOT AVBL
MIDDLETON      CLOUDY    75  75 100 S7        29.73F
WATERTOWN      CLOUDY    73  73 100 S7        29.75F
MONROE         CLOUDY    72  72 100 S8        29.75F
JANESVILLE     CLOUDY    75  75 100 S12G17    29.75F
$$

WIZ051-052-058>065-066-070>072-170800-
SOUTHEAST WISCONSIN

CITY           SKY/WX    TMP DP  RH WIND       PRES   REMARKS
MILWAUKEE      NOT AVBL
WAUKESHA       CLOUDY    70  70 100 S6        29.78F
MILWAUKEE/TIMM CLOUDY    72  68  88 S3        29.77F FOG
RACINE         NOT AVBL
KENOSHA        NOT AVBL
FOND DU LAC    NOT AVBL
SHEBOYGAN      NOT AVBL
WEST BEND      CLOUDY    70  70 100 CALM      29.76F FOG
JUNEAU         CLOUDY    72  71  96 S6        29.76F FOG
$$

LSZ147-162-170800-
LAKE SUPERIOR

STATION/POSITION TIME  TEMP    WIND        PRES    WAVE
                       AIR SEA DIR/SP/G            HT/PER
                 (UTC) (F)     (DEG/KT/KT) (MB)    (FT/S)
W MID LAKE BUOY  0550   62 60   80/ 14/ 16 1008.9F   3/ 4
DEVILS ISLAND    0600   62      60/ 15/ 18 1008.4F
SAXON HARBOR     0640   64      CALM  /  2 1006.8S
$$

LMZ867-665-643>646-170800-
LAKE MICHIGAN

STATION/POSITION TIME  TEMP    WIND        PRES    WAVE
                       AIR SEA DIR/SP/G            HT/PER
                 (UTC) (F)     (DEG/KT/KT) (MB)    (FT/S)
S GREEN BAY BUOY 0630   71 72  130/ 16/ 19 1007.9F
N MID LAKE BUOY  0550   70 68  120/ 14/ 17 1010.8F   1/ 4
NORTHPORT PIER   0640   70     110/ 12/ 15 1009.1F
KEWAUNEE LAKESHO 0624   69     140/  7/ 11 1008.1
SHEBOYGAN LAKESH 0600   70     100/ 13/ 14 1007.7F
PORT WASHINGTON  0630   73     160/  6/  7 1008.5F
ATWATER BUOY     0539   73 72  150/ 12/ 16 1008.2F
MILWAUKEE LAKESH 0630   74     190/  7/  7   N/A
S MID LAKE BUOY  0550   74 72  230/ 14/ 23 1010.0R   1/ 3
KENOSHA   LAKESH 0600   74     180/  7/ 10 1008.1
$$

TC  - TEMPERATURE IN CELSIUS
VSB - VISIBILITY IN STATUTE MILES
WCI - WIND CHILL INDEX
HX  - HEAT INDEX




USA.gov is the U.S. government's official web portal to all federal, state and local government web resources and services.